Regional Weather Roundup
Issued by NWS

Home | Current Version | Previous Version | Graphics & Text | Print | Product List | Glossary On
Versions: 1 2 3 4 5 6 7 8 9 10 11 12 13 14 15 16 17 18 19 20 21 22 23 24 25 26 27 28 29 30 31 32 33 34 35 36 37 38 39 40 41 42 43 44 45 46 47 48 49
000
ASUS45 KBOU 231207
RWRCO

WEATHER ROUNDUP FOR COLORADO
NATIONAL WEATHER SERVICE DENVER/BOULDER CO
600 AM MDT SUN APR 23 2017

NOTE: "FAIR" INDICATES FEW OR NO CLOUDS BELOW 12000 FEET WITH NO
SIGNIFICANT WEATHER AND/OR OBSTRUCTIONS TO VISIBILITY.

COZ001>005-013-030-031-231300-
...NORTHWEST COLORADO...

CITY           SKY/WX    TMP DP  RH WIND       PRES   REMARKS
CRAIG          FAIR      28  24  85 SW3       30.05F
HAYDEN         FAIR      34  19  55 E10       30.06F WCI  26
MEEKER         FAIR      29  25  85 CALM      30.05F
MOUNT WERNER   NOT AVBL
STEAMBOAT SPGS FAIR      28  23  81 CALM      30.08F
WALDEN           N/A     30  19  64 S9        30.11F WCI  22
$$

COZ006>008-011-231300-
...WEST CENTRAL VALLEYS...

CITY           SKY/WX    TMP DP  RH WIND       PRES   REMARKS
GRAND JUNCTION FAIR      43  24  47 SE13      30.01F
MONTROSE       FAIR      33  22  63 SE5       30.11S WCI  29
EAGLE          FAIR      28  22  78 CALM      30.16F
RIFLE          FAIR      32  26  78 CALM      30.08F
DELTA          FAIR      40  23  50 NE5       30.08F
NUCLA          FAIR      36  19  51 E7        30.12S
$$

COZ017>023-064>068-231300-
...SOUTHWEST COLORADO...

CITY           SKY/WX    TMP DP  RH WIND       PRES   REMARKS
DURANGO        FAIR      27  18  69 E3        30.18F
CORTEZ         FAIR      29  23  78 VRB3      30.11S
PAGOSA SPRINGS FAIR      30  19  63 CALM      30.23S
TELLURIDE      FAIR      43   5  20 CALM      30.20F
WOLF CREEK PAS FAIR      25   9  50 SW18      30.35S WCI  11
$$

COZ009-010-012-014-032>034-037-058>063-231300-
...CENTRAL COLORADO...

CITY           SKY/WX    TMP DP  RH WIND       PRES   REMARKS
ASPEN          FAIR      26  19  74 S6        30.13F WCI  19
BUENA VISTA    FAIR      25  21  86 CALM      30.17S
COPPER MTN     FAIR      34   1  25 MISG      30.26F
BERTHOUD PASS  FAIR      23  12  63 NW25G33   30.22F WCI   7
COTTONWOOD PAS FAIR      32  23  69 SE7       30.19S WCI  26
GUNNISON       FAIR      24  20  84 CALM      30.22
KREMMLING      FAIR      28  25  86 CALM      30.17S
LEADVILLE      FAIR      18  14  84 CALM      30.18F
MONARCH PASS   FAIR      25  19  80 SW29      30.36S WCI   8
SALIDA         FAIR      33  27  79 NW9       30.22F WCI  26
SUNLIGHT       FAIR      28  16  59 S13       30.25F WCI  18
WILKERSON PASS FAIR      28  19  69 W12G22    30.23S WCI  18
$$

COZ069>075-231300-
...SAN LUIS VALLEY/SANGRE DE CRISTO MOUNTAINS...

CITY           SKY/WX    TMP DP  RH WIND       PRES   REMARKS
ALAMOSA        FAIR      24  21  88 S6        30.21R WCI  17
LA VETA PASS   FAIR      28  25  86 SW44G58   30.27R WCI  10
SAGUACHE       FAIR      27  19  74 N3        30.24S
$$

COZ035-036-038>040-231300-
...NORTHERN COLORADO FRONT RANGE...

CITY           SKY/WX    TMP DP  RH WIND       PRES   REMARKS
DENVER INTL AP MOCLDY    42  30  62 W10       30.00S
DMNS CITY PARK   N/A     40  29  64 MISG      30.01S
AURORA         MOCLDY    43  29  59 SW16      30.01R
FRONT RANGE AP FAIR      45  32  61 SW9       30.00S
ERIE MUNI ARPT FAIR      34  32  92 CALM      30.02R
BOULDER MUN AP FAIR      37  32  81 CALM      30.01S
CENTENNIAL     MOCLDY    41  29  62 S9        30.02R
BROOMFIELD     MOCLDY    39  32  75 NW12      30.01S
FORT COLLINS   FAIR      35  33  92 NE6       30.01F WCI  30
LONGMONT       FAIR      39  32  77 CALM      30.03S HAZE
$$

COZ041-046-047-076>085-087-088-231300-
...PIKES PEAK/PALMER DIVIDE AND SOUTHERN FOOTHILLS...

CITY           SKY/WX    TMP DP  RH WIND       PRES   REMARKS
COLO. SPRINGS  MOCLDY    36  29  75 CALM      30.08F
A. F. ACADEMY  FAIR      28  26  92 NW5       30.08F WCI  23
SCHRIEVER AFB  FAIR      33  30  88 NE6       30.09F WCI  28
ELLICOTT       FAIR     N/A N/A N/A S6        30.07F
FALCON         FAIR      32  28  84 CALM      30.10F
FORT CARSON    FAIR      36  30  80 CALM      30.07F
LIMON          FAIR      35  31  85 S12       30.07F WCI  27
MONUMENT HILL  FAIR      36  27  69 S14       30.07S
TRINIDAD       FAIR      38  29  70 SW8       30.10F
$$

COZ042>045-048>051-090-091-231300-
...NORTHEAST COLORADO...

CITY           SKY/WX    TMP DP  RH WIND       PRES   REMARKS
GREELEY ARPT   FAIR      35  33  92 NE3       30.02F
AKRON          FAIR      38  31  76 S13       30.04F
BURLINGTON     NOT AVBL
WRAY           NOT AVBL
STERLING       FAIR      36  32  87 S3        30.04F
HOLYOKE        FAIR      37  34  87 S8        30.10R
FORT MORGAN    FAIR      33  31  94 E7        30.04S WCI  27
$$

COZ086-089-092>099-231300-
...SOUTHEAST COLORADO...

CITY           SKY/WX    TMP DP  RH WIND       PRES   REMARKS
PUEBLO         FAIR      35  32  88 CALM      30.07F
LA JUNTA       FAIR      38  31  76 CALM      30.09F
LAMAR          FAIR      38  31  76 S9        30.11F
SPRINGFIELD      N/A     32  29  88 S9        30.16F WCI  24
$$



USA.gov is the U.S. government's official web portal to all federal, state and local government web resources and services.